When you browse on this site, cookies collect data to enhance your experience and personalize the content and advertising you see.
Visit our Privacy Policy to learn more. By continuing to use the site, you agree to this use of cookies and data.
  • In Latvia
  • List of Countries
  • For 7 days
  • Water Temperature
  • Satellite Maps
  • Weather Map
  • Weather Widgets
  • user-avatar
    Login

    Hourly Weather Livingstone

    Today, 13 December, Thursday

    Time Temperature Precipitation Wind Pressure Humidity
    00:00 +25°C° 0 mm 1 mps 683 mmHg 48%
    01:00 +24°C° 0 mm 1 mps 683 mmHg 51%
    02:00 +24°C° 0 mm 1 mps 684 mmHg 61%
    03:00 +23°C° 0 mm 1 mps 684 mmHg 63%
    04:00 +23°C° 0 mm 1 mps 684 mmHg 64%
    05:00 +22°C° 0 mm 1 mps 683 mmHg 65%
    06:00 +25°C° 0 mm 1 mps 684 mmHg 58%
    07:00 +27°C° 0 mm 1 mps 685 mmHg 50%
    08:00 +29°C° 0 mm 1 mps 685 mmHg 43%
    09:00 +31°C° 0 mm 2 mps 686 mmHg 35%
    10:00 +34°C° 0 mm 2 mps 686 mmHg 27%
    11:00 +36°C° 0 mm 3 mps 686 mmHg 19%
    12:00 +37°C° 0 mm 3 mps 685 mmHg 17%
    13:00 +38°C° 0 mm 3 mps 685 mmHg 16%
    14:00 +40°C° 0 mm 4 mps 684 mmHg 14%
    15:00 +38°C° 0 mm 4 mps 684 mmHg 15%
    16:00 +38°C° 0 mm 4 mps 683 mmHg 17%
    17:00 +37°C° 0 mm 4 mps 682 mmHg 18%
    18:00 +35°C° 0 mm 3 mps 682 mmHg 23%
    19:00 +31°C° 0 mm 2 mps 683 mmHg 27%
    20:00 +29°C° 0 mm 2 mps 683 mmHg 32%
    21:00 +28°C° 0 mm 2 mps 683 mmHg 33%
    22:00 +28°C° 0 mm 1 mps 683 mmHg 35%
    23:00 +27°C° 0 mm 1 mps 684 mmHg 36%

    Tomorrow, 14 December, Friday

    Time Temperature Precipitation Wind Pressure Humidity
    00:00 +26°C° 0 mm 1 mps 684 mmHg 38%
    01:00 +26°C° 0 mm 1 mps 684 mmHg 40%
    02:00 +25°C° 0 mm 1 mps 684 mmHg 41%
    03:00 +25°C° 0 mm 1 mps 684 mmHg 44%
    04:00 +24°C° 0 mm 1 mps 684 mmHg 46%
    05:00 +24°C° 0 mm 1 mps 684 mmHg 49%
    06:00 +26°C° 0 mm 1 mps 684 mmHg 44%
    07:00 +28°C° 0 mm 2 mps 685 mmHg 40%
    08:00 +30°C° 0 mm 2 mps 686 mmHg 35%
    09:00 +33°C° 0 mm 3 mps 686 mmHg 30%
    10:00 +35°C° 0 mm 3 mps 686 mmHg 25%
    11:00 +38°C° 0 mm 4 mps 686 mmHg 20%
    12:00 +38°C° 0 mm 4 mps 685 mmHg 19%
    13:00 +40°C° 0 mm 4 mps 685 mmHg 18%
    14:00 +40°C° 0 mm 5 mps 684 mmHg 17%
    15:00 +40°C° 0 mm 5 mps 683 mmHg 18%
    16:00 +38°C° 0 mm 4 mps 683 mmHg 20%
    17:00 +37°C° 0 mm 4 mps 682 mmHg 21%
    18:00 +35°C° 0 mm 3 mps 682 mmHg 26%
    19:00 +33°C° 0 mm 3 mps 682 mmHg 30%
    20:00 +30°C° 0 mm 2 mps 682 mmHg 35%
    21:00 +29°C° 0 mm 2 mps 683 mmHg 38%
    22:00 +28°C° 0 mm 2 mps 683 mmHg 41%
    23:00 +27°C° 0 mm 1 mps 683 mmHg 44%

    Day after tomorrow, 15 December, Saturday

    Time Temperature Precipitation Wind Pressure Humidity
    00:00 +27°C° 0 mm 1 mps 683 mmHg 46%
    01:00 +26°C° 0 mm 2 mps 683 mmHg 48%
    02:00 +26°C° 0 mm 2 mps 683 mmHg 50%
    03:00 +25°C° 0 mm 2 mps 683 mmHg 52%
    04:00 +25°C° 0 mm 2 mps 683 mmHg 53%
    05:00 +24°C° 0 mm 2 mps 684 mmHg 55%
    06:00 +26°C° 0 mm 2 mps 684 mmHg 53%
    07:00 +27°C° 0 mm 3 mps 685 mmHg 50%
    08:00 +29°C° 0 mm 3 mps 686 mmHg 48%
    09:00 +31°C° 0 mm 3 mps 686 mmHg 43%
    10:00 +33°C° 0 mm 3 mps 686 mmHg 39%
    11:00 +35°C° 0 mm 3 mps 686 mmHg 34%
    12:00 +36°C° 0 mm 3 mps 685 mmHg 32%
    13:00 +36°C° 0 mm 3 mps 684 mmHg 31%
    14:00 +36°C° 0 mm 2 mps 684 mmHg 29%
    15:00 +36°C° 0 mm 2 mps 683 mmHg 29%
    16:00 +35°C° 0 mm 2 mps 682 mmHg 30%
    17:00 +35°C° 0 mm 2 mps 682 mmHg 30%
    18:00 +32°C° 0 mm 2 mps 682 mmHg 33%
    19:00 +31°C° 0 mm 2 mps 682 mmHg 36%
    20:00 +29°C° 0 mm 2 mps 683 mmHg 40%
    21:00 +29°C° 0 mm 2 mps 683 mmHg 42%
    22:00 +28°C° 0 mm 1 mps 683 mmHg 44%
    23:00 +27°C° 0 mm 1 mps 683 mmHg 46%

    16 December, Sunday

    Time Temperature Precipitation Wind Pressure Humidity
    00:00 +27°C° 0 mm 1 mps 683 mmHg 47%
    01:00 +26°C° 0 mm 1 mps 682 mmHg 47%
    02:00 +26°C° 0 mm 1 mps 682 mmHg 48%
    03:00 +25°C° 0 mm 1 mps 682 mmHg 50%
    04:00 +25°C° 0 mm 1 mps 683 mmHg 52%
    05:00 +24°C° 0 mm 1 mps 683 mmHg 54%
    06:00 +26°C° 0 mm 1 mps 684 mmHg 52%
    07:00 +27°C° 0 mm 1 mps 684 mmHg 49%
    08:00 +28°C° 0 mm 2 mps 685 mmHg 47%
    09:00 +30°C° 0 mm 2 mps 685 mmHg 43%
    10:00 +32°C° 0 mm 2 mps 685 mmHg 39%
    11:00 +35°C° 0 mm 2 mps 685 mmHg 34%
    12:00 +35°C° 0 mm 2 mps 684 mmHg 33%
    13:00 +36°C° 0 mm 2 mps 683 mmHg 31%
    14:00 +36°C° 0 mm 2 mps 683 mmHg 30%
    15:00 +36°C° 0 mm 3 mps 682 mmHg 31%
    16:00 +35°C° 0 mm 3 mps 682 mmHg 31%
    17:00 +35°C° 0 mm 3 mps 682 mmHg 32%
    18:00 +33°C° 0 mm 3 mps 682 mmHg 36%
    19:00 +31°C° 0 mm 2 mps 682 mmHg 40%
    20:00 +29°C° 0 mm 2 mps 682 mmHg 44%
    21:00 +28°C° 0 mm 2 mps 683 mmHg 46%
    22:00 +28°C° 0 mm 2 mps 683 mmHg 47%
    23:00 +27°C° 0 mm 2 mps 683 mmHg 48%

    17 December, Monday

    Time Temperature Precipitation Wind Pressure Humidity
    00:00 +26°C° 0 mm 2 mps 682 mmHg 52%
    01:00 +26°C° 0 mm 1 mps 682 mmHg 56%
    02:00 +25°C° 0 mm 1 mps 682 mmHg 60%
    03:00 +25°C° 0 mm 1 mps 682 mmHg 62%
    04:00 +24°C° 0 mm 1 mps 682 mmHg 65%
    05:00 +22°C° 0 mm 0 mps 683 mmHg 67%
    06:00 +25°C° 0 mm 1 mps 683 mmHg 63%
    07:00 +27°C° 0 mm 1 mps 684 mmHg 59%
    08:00 +28°C° 0 mm 1 mps 685 mmHg 55%
    09:00 +30°C° 0 mm 2 mps 685 mmHg 48%
    10:00 +32°C° 0 mm 2 mps 685 mmHg 41%
    11:00 +35°C° 0 mm 2 mps 685 mmHg 34%
    12:00 +36°C° 0 mm 3 mps 684 mmHg 31%
    13:00 +37°C° 0 mm 3 mps 683 mmHg 28%
    14:00 +37°C° 0 mm 3 mps 682 mmHg 25%
    15:00 +37°C° 0 mm 3 mps 682 mmHg 26%
    16:00 +37°C° 0 mm 4 mps 682 mmHg 26%
    17:00 +36°C° 0 mm 4 mps 682 mmHg 26%
    18:00 +35°C° 0 mm 4 mps 682 mmHg 31%
    19:00 +33°C° 0 mm 4 mps 682 mmHg 36%
    20:00 +30°C° 0 mm 3 mps 682 mmHg 42%
    21:00 +29°C° 0 mm 3 mps 682 mmHg 46%
    22:00 +28°C° 0 mm 3 mps 682 mmHg 50%
    23:00 +27°C° 0 mm 2 mps 682 mmHg 55%

    18 December, Tuesday

    Time Temperature Precipitation Wind Pressure Humidity
    00:00 +26°C° 0 mm 2 mps 682 mmHg 56%
    01:00 +26°C° 0 mm 2 mps 682 mmHg 58%
    02:00 +25°C° 0 mm 1 mps 682 mmHg 60%
    03:00 +25°C° 0 mm 1 mps 682 mmHg 62%
    04:00 +24°C° 0 mm 1 mps 682 mmHg 63%
    05:00 +24°C° 0 mm 1 mps 682 mmHg 65%
    06:00 +25°C° 0 mm 1 mps 683 mmHg 60%
    07:00 +27°C° 0 mm 2 mps 683 mmHg 55%
    08:00 +29°C° 0 mm 2 mps 684 mmHg 49%
    09:00 +31°C° 0 mm 2 mps 684 mmHg 44%
    10:00 +34°C° 0 mm 3 mps 684 mmHg 38%
    11:00 +36°C° 0 mm 3 mps 684 mmHg 32%
    12:00 +37°C° 0 mm 3 mps 683 mmHg 30%
    13:00 +37°C° 0 mm 3 mps 682 mmHg 29%
    14:00 +38°C° 0 mm 3 mps 682 mmHg 27%
    15:00 +37°C° 0 mm 3 mps 681 mmHg 27%
    16:00 +37°C° 0 mm 3 mps 681 mmHg 28%
    17:00 +37°C° 0 mm 3 mps 681 mmHg 28%
    18:00 +35°C° 0 mm 3 mps 681 mmHg 32%
    19:00 +33°C° 0 mm 3 mps 681 mmHg 36%
    20:00 +31°C° 0 mm 3 mps 681 mmHg 40%
    21:00 +29°C° 0 mm 2 mps 681 mmHg 44%
    22:00 +28°C° 0 mm 2 mps 681 mmHg 48%
    23:00 +27°C° 0 mm 2 mps 681 mmHg 51%
    Show more